• Join FlightAware (Why Join?)
  • Login
  • US Flag 
03:15AM EST


 

Airport Tracker/Info


-or-


 

Live Flight TrackerFlight Track Log ✈ VH-YEN ✈ 03-Nov-2013 ✈ YFBS / FRB - YSCN / CDU

Flight Track Log - Related Links

Times and Time Zones

All times are in EDT time to prevent confusion due to time zone crossing. See the VH-YEN flight status page for this flight to view local times or setup timezone preferences in your user account.

Time Position Orientation Groundspeed Altitude Reporting Facility
EDT Latitude Longitude Course Direction KTS MPH feet Rate Location/Type
11:43PM -33.3643 147.9276 127° Southeast 9,000  Level Aus ATC (Calculated)
11:44PM -33.4250 148.0169 125° Southeast 9,000 -171 Level Aus ATC (Calculated)
11:46PM -33.4856 148.1064 117° Southeast 9,000 -205 Level Aus ATC (Calculated)
11:47PM -33.4867 148.1080 129° Southeast  Level FlightAware Approximate
11:47PM -33.4851 148.1118 120° Southeast 9,000  Level Aus ATC (Calculated)
11:49PM -33.5391 148.1907 129° Southeast  Level FlightAware Approximate
11:50PM -33.5693 148.2350 129° Southeast  Level FlightAware Approximate
11:50PM -33.5461 148.1959 322° Northwest 9,000  Level Aus ATC (Calculated)
11:51PM -33.5085 148.1612 129° Southeast 120 138 7,700 -750 Descending Aus ATC (RADAR)
11:51PM -33.5203 148.1819 124° Southeast 125 144 8,000 600 Climbing Aus ATC (RADAR)
11:52PM -33.5332 148.2013 129° Southeast 128 147 8,400 771 Climbing Aus ATC (RADAR)
11:53PM -33.5455 148.2221 125° Southeast 129 148 8,900 447 Climbing Aus ATC (RADAR)
11:54PM -33.5699 148.2592 128° Southeast 147 169 9,100 133 Climbing Aus ATC (RADAR)
11:54PM -33.5859 148.2805 132° Southeast 164 189 9,100  Level Aus ATC (RADAR)
11:54PM -33.5999 148.2976 134° Southeast 170 196 9,100 -102 Level Aus ATC (RADAR)
11:55PM -33.6204 148.3201 138° Southeast 170 196 9,000 -76 Descending Aus ATC (RADAR)
11:56PM -33.6455 148.3490 136° Southeast 166 191 9,000  Level Aus ATC (RADAR)
11:56PM -33.6652 148.3724 135° Southeast 168 193 9,000  Level Aus ATC (RADAR)
11:57PM -33.6807 148.3933 132° Southeast 165 190 9,000 86 Level Aus ATC (RADAR)
11:58PM -33.6974 148.4265 121° Southeast 166 191 9,100 63 Climbing Aus ATC (RADAR)
11:58PM -33.7274 148.4594 138° Southeast 158 182 9,100  Level Aus ATC (RADAR)
11:59PM -33.7411 148.4844 123° Southeast 168 193 9,100  Level Aus ATC (RADAR)
11:59PM -33.7534 148.5047 126° Southeast 176 203 9,100 -100 Level Aus ATC (RADAR)
12:00AM -33.7727 148.5327 130° Southeast 183 211 9,000 -71 Descending Aus ATC (RADAR)
12:01AM -33.7986 148.5708 129° Southeast 177 204 9,000 67 Level Aus ATC (RADAR)
12:01AM -33.8206 148.6026 130° Southeast 183 211 9,100 71 Climbing Aus ATC (RADAR)
12:02AM -33.8439 148.6377 129° Southeast 175 201 9,100  Level Aus ATC (RADAR)
12:03AM -33.8548 148.6578 123° Southeast 172 198 9,100 -71 Level Aus ATC (RADAR)
12:04AM -33.8676 148.7218 104° East 189 217 9,000 -212 Descending Aus ATC (RADAR)
12:04AM -33.8724 148.7476 103° East 188 216 8,800 -367 Descending Aus ATC (RADAR)
12:04AM -33.8784 148.7718 107° East 184 212 8,700 102 Descending Aus ATC (RADAR)
12:05AM -33.8874 148.8066 107° East 184 212 8,900 150 Climbing Aus ATC (RADAR)
12:06AM -33.8971 148.8537 104° East 187 215 8,900  Level Aus ATC (RADAR)
12:06AM -33.9060 148.8891 107° East 185 213 8,900 -75 Level Aus ATC (RADAR)
12:07AM -33.9162 148.9344 105° East 184 212 8,800 -86 Descending Aus ATC (RADAR)
12:08AM -33.9224 148.9605 106° East 188 216 8,800 -100 Level Aus ATC (RADAR)
12:08AM -33.9304 148.9964 105° East 187 215 8,700 200 Descending Aus ATC (RADAR)
12:09AM -33.9433 149.0535 105° East 189 217 9,100 75 Climbing Aus ATC (RADAR)
12:09AM -33.9496 149.0802 106° East 194 223 8,800 -200 Descending Aus ATC (RADAR)
12:10AM -33.9582 149.1177 106° East 194 223 8,900 67 Climbing Aus ATC (RADAR)
12:11AM -33.9713 149.1756 105° East 190 219 8,900 -67 Level Aus ATC (RADAR)
12:12AM -33.9796 149.2132 105° East 194 223 8,800 -75 Descending Aus ATC (RADAR)
12:12AM -33.9909 149.2612 106° East 194 223 8,800 86 Level Aus ATC (RADAR)
12:13AM -33.9965 149.2875 104° East 191 220 8,900 -100 Climbing Aus ATC (RADAR)
12:13AM -34.0049 149.3238 106° East 186 214 8,700 67 Descending Aus ATC (RADAR)
12:14AM -34.0154 149.3771 103° East 178 205 9,000 375 Climbing Aus ATC (RADAR)
12:15AM -34.0198 149.4020 102° East 178 205 9,200 -92 Climbing Aus ATC (RADAR)
12:15AM -34.0289 149.4439 105° East 188 216 8,900 -300 Descending Aus ATC (RADAR)
12:16AM -34.0375 149.4872 104° East 195 224 8,800 -228 Descending Aus ATC (RADAR)
12:17AM -34.0447 149.5307 101° East 196 226 8,600 87 Descending Aus ATC (RADAR)
12:17AM -34.0506 149.5627 102° East 191 220 8,900 171 Climbing Aus ATC (RADAR)
12:18AM -34.0579 149.6045 102° East 189 217 8,800 -80 Descending Aus ATC (RADAR)
12:18AM -34.0647 149.6441 102° East 200 230 8,800  Level Aus ATC (RADAR)
12:20AM -34.0803 149.7269 103° East 199 229 8,800 -126 Level Aus ATC (RADAR)
12:20AM -34.0850 149.7497 104° East 202 232 8,600 -610 Descending Aus ATC (RADAR)
12:21AM -34.0889 149.7988 95° East 213 245 8,200 -494 Descending Aus ATC (RADAR)
12:21AM -34.0927 149.8506 95° East 201 231 7,900 -450 Descending Aus ATC (RADAR)
12:22AM -34.0949 149.8903 94° East 198 228 7,600 -600 Descending Aus ATC (RADAR)
12:23AM -34.0972 149.9408 93° East 195 224 7,100 -600 Descending Aus ATC (RADAR)
12:23AM -34.1007 149.9680 99° East 192 221 6,900 -525 Descending Aus ATC (RADAR)
12:24AM -34.1168 150.0268 108° East 196 226 6,400 -380 Descending Aus ATC (RADAR)
12:24AM -34.1220 150.0541 103° East 196 226 6,400  Level Aus ATC (RADAR)
12:25AM -34.1262 150.0810 101° East 193 222 6,400 -400 Level Aus ATC (RADAR)
12:25AM -34.1323 150.1185 101° East 190 219 6,000 -553 Descending Aus ATC (RADAR)
12:26AM -34.1377 150.1605 99° East 184 212 5,700 -240 Descending Aus ATC (RADAR)
12:27AM -34.1417 150.1964 98° East 181 208 5,700 -456 Level Aus ATC (RADAR)
12:27AM -34.1462 150.2454 96° East 189 217 5,100 -507 Descending Aus ATC (RADAR)
12:28AM -34.1525 150.2706 107° East 186 214 5,100 100 Level Aus ATC (RADAR)
12:28AM -34.1596 150.3036 105° East 173 199 5,200 67 Climbing Aus ATC (RADAR)
12:29AM -34.1652 150.3549 98° East 162 186 5,200 150 Level Aus ATC (RADAR)
12:30AM -34.1669 150.3777 95° East 161 185 5,400 92 Climbing Aus ATC (RADAR)
12:30AM -34.1667 150.4138 90° East 159 183 5,300 -525 Descending Aus ATC (RADAR)
12:31AM -34.1510 150.4529 64° Northeast 183 211 4,700 -800 Descending Aus ATC (RADAR)
12:32AM -34.1383 150.4781 59° Northeast 147 169 4,300 -750 Descending Aus ATC (RADAR)
12:32AM -34.1235 150.5087 60° Northeast 135 155 3,700 -771 Descending Aus ATC (RADAR)
12:33AM -34.1153 150.5257 60° Northeast 137 158 3,400 -600 Descending Aus ATC (RADAR)
12:33AM -34.1038 150.5480 58° Northeast 130 150 3,100 -632 Descending Aus ATC (RADAR)
12:34AM -34.0845 150.5863 59° Northeast 131 151 2,400 -706 Descending Aus ATC (RADAR)
12:35AM -34.0765 150.6026 59° Northeast 131 151 2,100 -915 Descending Aus ATC (RADAR)
12:35AM -34.0634 150.6259 56° Northeast 139 160 1,500 -857 Descending Aus ATC (RADAR)
12:36AM -34.0495 150.6615 65° Northeast 132 152 900 -424 Descending Aus ATC (RADAR)
12:37AM -34.0429 150.6820 69° East 111 128 900  Level Aus ATC (RADAR)
12:37AM -34.0405 150.7037 82° East 99 114 900 -171 Level Aus ATC (RADAR)
12:38AM -34.0312 150.7105 31° Northeast 96 110 700 -462 Descending Aus ATC (RADAR)
12:39AM -34.0340 150.6978 255° West 68 78 400 -500 Descending Aus ATC (RADAR)
12:39AM -34.0371 150.6900 245° Southwest 64 74 200 -480 Descending Aus ATC (RADAR)